[[{"header":{"parameterUnit":"m.s-1","parameterCategory":1,"la1":30.2992,"la2":30.254,"lo1":-89.0895,"lo2":-89.0443,"dy":0.0025,"dx":0.0025,"nx":19,"ny":19,"refTime":"2026-05-21T09:00:00:Z","depth":0,"parameterNumber":2,"parameterNumberName":"U-component_of_WINDS"},"data":[0,0,0,-1.7282,-1.7285,-1.7474,-1.7475,-1.7704,-1.7706,0,0,0,0,0,0,0,0,0,0,0,-1.7216,-1.7217,-1.7281,-1.7286,-1.7474,-1.7475,-1.7703,-1.7706,0,0,0,0,0,0,0,0,0,0,0,-1.7216,-1.7217,-1.7219,-1.7286,-1.7474,-1.7475,-1.7703,-1.7566,0,0,0,0,0,0,0,0,0,0,-1.7385,-1.7314,-1.7217,-1.7219,-1.7287,-1.7474,-1.7475,-1.7559,-1.7574,-1.7612,0,-1.7642,0,-1.7677,-1.772,-1.7721,0,0,0,-1.7293,-1.7302,-1.7361,-1.7219,-1.7289,-1.7473,-1.7391,-1.7568,-1.7585,-1.7632,-1.7646,-1.7654,-1.7681,-1.7721,-1.7722,-1.7915,-1.7915,0,0,-1.7283,-1.7245,-1.7349,-1.7372,-1.734,-1.7385,-1.7397,-1.7578,-1.7591,-1.7646,-1.766,-1.7685,-1.7723,-1.7724,-1.7914,-1.7915,0,0,0,-1.7248,-1.7238,-1.7293,-1.7362,-1.7397,-1.739,-1.7404,-1.7583,-1.7604,-1.7663,-1.7688,-1.7724,-1.7727,-1.7914,-1.7915,-1.7904,0,0,0,-1.7242,-1.7217,-1.7288,-1.7267,-1.7393,-1.7492,-1.7404,-1.7591,-1.7613,-1.7686,-1.7724,-1.7729,-1.7913,-1.7914,-1.7903,-1.7905,0,0,0,-1.7207,-1.7213,-1.7237,-1.7264,-1.7344,-1.749,-1.7522,-1.7597,-1.7628,-1.7721,-1.7729,-1.7913,-1.7914,-1.7902,-1.7904,-1.7945,0,0,0,-1.7159,-1.7225,-1.7236,-1.732,-1.7342,-1.7481,-1.7521,-1.7627,-1.7705,-1.7725,-1.7913,-1.7914,-1.7902,-1.7903,-1.7944,-1.7972,-1.798,0,0,-1.7222,-1.7231,-1.7284,-1.7299,-1.7427,-1.7456,-1.7583,-1.7691,-1.7735,-1.7853,-1.7858,-1.7904,-1.7904,-1.7945,-1.8041,-1.8047,0,0,0,-1.7291,-1.7328,-1.737,-1.7443,-1.7526,-1.7599,-1.7692,-1.7732,-1.7834,-1.7787,-1.7931,-1.7932,-1.7958,-1.7973,-1.7978,-1.8003,-1.792,-1.792,-1.792,-1.7324,-1.7377,-1.7468,-1.7543,-1.7614,-1.7709,-1.7772,-1.7843,-1.7876,-1.7909,-1.7944,-1.7995,-1.8012,-1.8016,-1.8041,-1.7964,-1.7964,-1.7964,-1.7964,-1.742,-1.7481,-1.7524,-1.7627,-1.7683,-1.7771,-1.7867,-1.7888,-1.7979,-1.7973,-1.7998,-1.7986,-1.8021,-1.8046,-1.7963,-1.7963,-1.7963,-1.7963,-1.7963,-1.7447,-1.7485,-1.7533,-1.7644,-1.7725,-1.7801,-1.7887,-1.7936,-1.7982,-1.8007,-1.805,-1.805,-1.8056,-1.8024,-1.8024,-1.8025,-1.8025,-1.8025,-1.8025,-1.7455,-1.751,-1.7575,-1.7671,-1.7724,-1.7802,-1.7901,-1.7956,-1.803,-1.8059,-1.8059,-1.8089,-1.8015,-1.7994,-1.8028,-1.8027,-1.8027,-1.8027,-1.8027,-1.753,-1.7521,-1.7622,-1.7676,-1.7794,-1.7871,-1.7933,-1.8042,-1.8095,-1.8136,-1.8162,-1.8099,-1.8113,-1.8109,-1.8092,-1.815,-1.815,-1.815,-1.815,-1.7552,-1.7564,-1.7679,-1.7762,-1.785,-1.7916,-1.8031,-1.811,-1.819,-1.8227,-1.8226,-1.8209,-1.8203,-1.822,-1.8214,-1.82,-1.8283,-1.8283,-1.8283,-1.7602,-1.7625,-1.7711,-1.7788,-1.7885,-1.7967,-1.8077,-1.8173,-1.8262,-1.829,-1.8257,-1.8251,-1.8224,-1.8213,-1.8236,-1.8226,-1.82,0,0]},{"header":{"parameterUnit":"m.s-1","parameterCategory":1,"la1":30.2992,"la2":30.254,"lo1":-89.0895,"lo2":-89.0443,"dy":0.0025,"dx":0.0025,"nx":19,"ny":19,"refTime":"2026-05-21T09:00:00:Z","depth":0,"parameterNumber":3,"parameterNumberName":"V-component_of_WINDS"},"data":[0,0,0,3.4107,3.4108,3.4138,3.4138,3.4188,3.4188,0,0,0,0,0,0,0,0,0,0,0,3.4107,3.4107,3.4107,3.4108,3.4138,3.4138,3.4187,3.4188,0,0,0,0,0,0,0,0,0,0,0,3.4106,3.4107,3.4108,3.4108,3.4138,3.4138,3.4187,3.4161,0,0,0,0,0,0,0,0,0,0,3.413,3.4137,3.4107,3.4108,3.4109,3.4138,3.4138,3.4159,3.4162,3.4179,0,3.4198,0,3.4194,3.4192,3.4193,0,0,0,3.4102,3.4135,3.4135,3.4108,3.4109,3.4138,3.4123,3.4161,3.4164,3.4184,3.4199,3.42,3.4195,3.4193,3.4193,3.4316,3.4317,0,0,3.41,3.4116,3.4133,3.4138,3.4136,3.4122,3.4124,3.4163,3.418,3.4199,3.4201,3.4196,3.4193,3.4194,3.4315,3.4316,0,0,0,3.41,3.4116,3.4115,3.4137,3.4141,3.4123,3.4125,3.4178,3.4176,3.4201,3.4196,3.4194,3.4194,3.4314,3.4315,3.4374,0,0,0,3.4098,3.4115,3.4114,3.4125,3.4141,3.416,3.414,3.4174,3.4177,3.4196,3.4194,3.4195,3.4313,3.4315,3.4371,3.44,0,0,0,3.4102,3.4115,3.4123,3.4125,3.4139,3.4159,3.416,3.4174,3.4175,3.4193,3.4195,3.4312,3.4314,3.4367,3.4394,3.4437,0,0,0,3.411,3.4175,3.4124,3.4194,3.4139,3.4196,3.4159,3.42,3.4223,3.4194,3.4313,3.4315,3.4366,3.4391,3.4433,3.4476,3.4495,0,0,3.4201,3.4186,3.4226,3.4181,3.4252,3.419,3.4268,3.4273,3.4259,3.4297,3.43,3.4372,3.4394,3.4436,3.4596,3.4612,0,0,0,3.426,3.4289,3.4304,3.4327,3.4332,3.4339,3.433,3.4331,3.4363,3.4283,3.4398,3.441,3.4435,3.4454,3.4467,3.4487,3.4325,3.4325,3.4324,3.4413,3.4392,3.4456,3.4439,3.446,3.445,3.4466,3.4466,3.4439,3.4466,3.4478,3.4577,3.4601,3.4611,3.4631,3.4498,3.4498,3.4498,3.4498,3.4544,3.4581,3.4542,3.4591,3.4568,3.4608,3.46,3.4579,3.4613,3.4567,3.4587,3.454,3.4628,3.4645,3.4503,3.4502,3.4501,3.4501,3.4501,3.4642,3.4656,3.4656,3.4686,3.471,3.469,3.4724,3.4701,3.468,3.47,3.471,3.4709,3.4705,3.4706,3.4707,3.4707,3.4707,3.4708,3.4708,3.4743,3.4742,3.4774,3.4784,3.4794,3.4806,3.4795,3.4805,3.481,3.4791,3.4791,3.4761,3.4641,3.4611,3.4713,3.4712,3.4711,3.4711,3.4711,3.4885,3.4849,3.4898,3.4909,3.4918,3.4944,3.4914,3.4936,3.494,3.4958,3.4923,3.4837,3.4821,3.481,3.4786,3.4927,3.4927,3.4927,3.4927,3.4968,3.4957,3.5002,3.502,3.5036,3.5014,3.5069,3.506,3.5046,3.5047,3.5023,3.4989,3.4979,3.4968,3.4954,3.4931,3.5106,3.5106,3.5106,3.5054,3.5044,3.5095,3.5081,3.5086,3.5091,3.5142,3.5164,3.514,3.5113,3.5048,3.504,3.4984,3.4967,3.494,3.4919,3.4875,0,0]}]]